Location: Risskov
(56.1972°N, 10.2480°E)
Time: 13:25:56
(UTC+00:00)

Cosmos 2369 Rocket - Pass Details

Date: 05 July 2020
Orbit: 830 x 851 km, 71.0° (Epoch: 06 August)

Event Time Altitude Azimuth Distance (km) Brightness Sun altitude
Rises 21:51:14 0° 322° (NW) 3,386 7.1 -8.7°
Reaches altitude 10° 21:53:51 10° 331° (NNW) 2,449 6.2 -8.9°
Maximum altitude 21:59:05 39° 39° (NE) 1,242 3.4 -9.1°
Drops below altitude 10° 22:04:18 10° 108° (ESE) 2,444 4.3 -9.4°
Enters shadow 22:06:51 - 116° (ESE) 3,356 4.9 -9.5°
